Voltar ao catálogo

DELTA 1 DEB

AtivoSSO
NORAD 3812·DEBRIS·🇺🇸 United States

Lançado Dec 15, 1968 de Vandenberg Space Force Base

Loading…

Próximas Passagens (próximas 24 horas)

TLE

AtualizadoSource: Space-Track

Época: Sep 14, 2026, 12:15 UTC

1 03812U 68114D   26257.51087201 -.00000043  00000-0  30170-4 0  9993
2 03812 102.4353 281.0633 0071008  11.8899 148.1431 12.37790027608676

Acompanhe DELTA 1 DEB em tempo real com AllMySat

Download on the App Store